• In Uzbekistan
  • List of Countries
  • For 7 days
  • Water Temperature
  • Satellite Maps
  • Weather Map
  • Weather Widgets
  • user-avatar
    Login

    Hourly Weather Bicske

    Today, 23 April, Monday

    Time Temperature Precipitation Wind Pressure Humidity
    00:00 +19°C° 0 mm 1 mps 745 mmHg 68%
    01:00 +18°C° 0 mm 1 mps 745 mmHg 62%
    02:00 +18°C° 0 mm 1 mps 745 mmHg 62%
    03:00 +16°C° 0 mm 1 mps 745 mmHg 63%
    04:00 +16°C° 0 mm 1 mps 745 mmHg 63%
    05:00 +18°C° 0 mm 1 mps 745 mmHg 61%
    06:00 +17°C° 0 mm 0 mps 745 mmHg 60%
    07:00 +18°C° 0 mm 0 mps 745 mmHg 58%
    08:00 +22°C° 0 mm 1 mps 745 mmHg 54%
    09:00 +24°C° 0 mm 1 mps 746 mmHg 51%
    10:00 +26°C° 0 mm 1 mps 746 mmHg 47%
    11:00 +27°C° 0 mm 1 mps 745 mmHg 45%
    12:00 +28°C° 0 mm 2 mps 745 mmHg 42%
    13:00 +29°C° 0 mm 2 mps 745 mmHg 40%
    14:00 +29°C° 0 mm 2 mps 745 mmHg 40%
    15:00 +28°C° 0 mm 2 mps 745 mmHg 41%
    16:00 +28°C° 0 mm 2 mps 744 mmHg 41%
    17:00 +27°C° 0 mm 2 mps 744 mmHg 46%
    18:00 +25°C° 0 mm 2 mps 744 mmHg 52%
    19:00 +23°C° 0 mm 2 mps 744 mmHg 57%
    20:00 +21°C° 0.6 mm 2 mps 744 mmHg 62%
    21:00 +20°C° 0.6 mm 3 mps 744 mmHg 67%
    22:00 +19°C° 0.6 mm 3 mps 744 mmHg 72%
    23:00 +19°C° 0.2 mm 3 mps 745 mmHg 74%

    Tomorrow, 24 April, Tuesday

    Time Temperature Precipitation Wind Pressure Humidity
    00:00 +19°C° 0.2 mm 3 mps 745 mmHg 76%
    01:00 +18°C° 0.2 mm 4 mps 745 mmHg 77%
    02:00 +18°C° 0 mm 3 mps 745 mmHg 79%
    03:00 +18°C° 0 mm 3 mps 745 mmHg 81%
    04:00 +17°C° 0 mm 3 mps 745 mmHg 82%
    05:00 +18°C° 0 mm 3 mps 746 mmHg 81%
    06:00 +18°C° 0 mm 4 mps 746 mmHg 80%
    07:00 +18°C° 0 mm 4 mps 746 mmHg 79%
    08:00 +19°C° 0 mm 4 mps 747 mmHg 74%
    09:00 +20°C° 0 mm 4 mps 747 mmHg 69%
    10:00 +21°C° 0 mm 4 mps 747 mmHg 65%
    11:00 +22°C° 0 mm 4 mps 747 mmHg 60%
    12:00 +23°C° 0 mm 4 mps 747 mmHg 55%
    13:00 +25°C° 0 mm 3 mps 747 mmHg 50%
    14:00 +25°C° 0 mm 3 mps 747 mmHg 49%
    15:00 +25°C° 0 mm 3 mps 746 mmHg 49%
    16:00 +25°C° 0 mm 3 mps 746 mmHg 49%
    17:00 +24°C° 0 mm 3 mps 746 mmHg 55%
    18:00 +21°C° 0 mm 2 mps 746 mmHg 60%
    19:00 +19°C° 0 mm 2 mps 746 mmHg 66%
    20:00 +19°C° 0 mm 2 mps 746 mmHg 68%
    21:00 +19°C° 0 mm 1 mps 746 mmHg 69%
    22:00 +18°C° 0 mm 1 mps 747 mmHg 71%
    23:00 +18°C° 0 mm 1 mps 746 mmHg 73%

    Day after tomorrow, 25 April, Wednesday

    Time Temperature Precipitation Wind Pressure Humidity
    00:00 +18°C° 0 mm 1 mps 746 mmHg 75%
    01:00 +16°C° 0 mm 1 mps 746 mmHg 76%
    02:00 +16°C° 0 mm 1 mps 746 mmHg 78%
    03:00 +16°C° 0 mm 1 mps 746 mmHg 79%
    04:00 +15°C° 0 mm 1 mps 746 mmHg 81%
    05:00 +16°C° 0 mm 1 mps 746 mmHg 78%
    06:00 +19°C° 0 mm 1 mps 747 mmHg 75%
    07:00 +20°C° 0 mm 1 mps 747 mmHg 71%
    08:00 +21°C° 0.1 mm 1 mps 747 mmHg 66%
    09:00 +23°C° 0.1 mm 2 mps 747 mmHg 60%
    10:00 +25°C° 0.1 mm 2 mps 747 mmHg 55%
    11:00 +25°C° 0.2 mm 2 mps 746 mmHg 52%
    12:00 +26°C° 0.2 mm 3 mps 746 mmHg 49%
    13:00 +27°C° 0.2 mm 3 mps 745 mmHg 47%
    14:00 +27°C° 0 mm 3 mps 745 mmHg 47%
    15:00 +27°C° 0 mm 3 mps 744 mmHg 48%
    16:00 +27°C° 0 mm 3 mps 744 mmHg 48%
    17:00 +25°C° 0 mm 3 mps 744 mmHg 54%
    18:00 +23°C° 0 mm 2 mps 744 mmHg 60%
    19:00 +21°C° 0 mm 2 mps 744 mmHg 66%
    20:00 +20°C° 0 mm 2 mps 744 mmHg 68%
    21:00 +19°C° 0 mm 2 mps 744 mmHg 71%
    22:00 +19°C° 0 mm 2 mps 744 mmHg 73%
    23:00 +19°C° 0.1 mm 1 mps 744 mmHg 76%

    26 April, Thursday

    Time Temperature Precipitation Wind Pressure Humidity
    00:00 +19°C° 0.1 mm 1 mps 744 mmHg 78%
    01:00 +18°C° 0.1 mm 1 mps 744 mmHg 80%
    02:00 +18°C° 0 mm 1 mps 744 mmHg 81%
    03:00 +16°C° 0 mm 1 mps 744 mmHg 83%
    04:00 +16°C° 0 mm 1 mps 744 mmHg 84%
    05:00 +18°C° 0 mm 1 mps 745 mmHg 80%
    06:00 +19°C° 0 mm 1 mps 745 mmHg 77%
    07:00 +19°C° 0 mm 2 mps 745 mmHg 74%
    08:00 +20°C° 0 mm 2 mps 745 mmHg 66%
    09:00 +23°C° 0 mm 2 mps 745 mmHg 58%
    10:00 +24°C° 0 mm 3 mps 745 mmHg 51%
    11:00 +25°C° 0.1 mm 3 mps 745 mmHg 50%
    12:00 +25°C° 0.1 mm 3 mps 745 mmHg 48%
    13:00 +25°C° 0.1 mm 3 mps 744 mmHg 47%
    14:00 +25°C° 0.1 mm 3 mps 744 mmHg 49%
    15:00 +23°C° 0.1 mm 4 mps 743 mmHg 52%
    16:00 +22°C° 0.1 mm 4 mps 743 mmHg 54%
    17:00 +21°C° 0.1 mm 5 mps 743 mmHg 59%
    18:00 +19°C° 0.1 mm 5 mps 744 mmHg 65%
    19:00 +16°C° 0.1 mm 6 mps 744 mmHg 70%
    20:00 +16°C° 0.1 mm 6 mps 744 mmHg 69%
    21:00 +15°C° 0.1 mm 7 mps 745 mmHg 68%
    22:00 +14°C° 0.1 mm 7 mps 746 mmHg 66%
    23:00 +14°C° 0 mm 7 mps 746 mmHg 67%

    27 April, Friday

    Time Temperature Precipitation Wind Pressure Humidity
    00:00 +13°C° 0 mm 6 mps 746 mmHg 68%
    01:00 +13°C° 0 mm 6 mps 746 mmHg 69%
    02:00 +11°C° 0 mm 6 mps 746 mmHg 69%
    03:00 +12°C° 0 mm 5 mps 747 mmHg 69%
    04:00 +12°C° 0 mm 5 mps 747 mmHg 69%
    05:00 +12°C° 0 mm 4 mps 747 mmHg 69%
    06:00 +13°C° 0 mm 4 mps 747 mmHg 69%
    07:00 +13°C° 0 mm 4 mps 747 mmHg 70%
    08:00 +14°C° 0 mm 3 mps 748 mmHg 63%
    09:00 +17°C° 0 mm 3 mps 748 mmHg 57%
    10:00 +19°C° 0 mm 3 mps 748 mmHg 51%
    11:00 +20°C° 0 mm 2 mps 747 mmHg 47%
    12:00 +21°C° 0 mm 2 mps 747 mmHg 43%
    13:00 +23°C° 0 mm 1 mps 747 mmHg 39%
    14:00 +23°C° 0 mm 1 mps 746 mmHg 39%
    15:00 +23°C° 0 mm 1 mps 746 mmHg 39%
    16:00 +23°C° 0 mm 1 mps 746 mmHg 38%
    17:00 +21°C° 0 mm 1 mps 746 mmHg 44%
    18:00 +20°C° 0 mm 1 mps 745 mmHg 49%
    19:00 +18°C° 0 mm 1 mps 745 mmHg 54%
    20:00 +16°C° 0 mm 2 mps 746 mmHg 57%
    21:00 +16°C° 0 mm 2 mps 746 mmHg 60%
    22:00 +14°C° 0 mm 3 mps 746 mmHg 63%
    23:00 +15°C° 0 mm 2 mps 746 mmHg 63%

    28 April, Saturday

    Time Temperature Precipitation Wind Pressure Humidity
    00:00 +14°C° 0 mm 2 mps 745 mmHg 64%
    01:00 +14°C° 0 mm 2 mps 745 mmHg 64%
    02:00 +13°C° 0 mm 2 mps 745 mmHg 64%
    03:00 +13°C° 0 mm 2 mps 745 mmHg 65%
    04:00 +12°C° 0 mm 2 mps 745 mmHg 65%
    05:00 +12°C° 0 mm 3 mps 745 mmHg 64%
    06:00 +13°C° 0 mm 3 mps 745 mmHg 63%
    07:00 +14°C° 0 mm 4 mps 745 mmHg 62%
    08:00 +17°C° 0 mm 4 mps 745 mmHg 59%
    09:00 +19°C° 0 mm 4 mps 744 mmHg 57%
    10:00 +20°C° 0 mm 4 mps 744 mmHg 55%
    11:00 +22°C° 0 mm 4 mps 744 mmHg 55%
    12:00 +23°C° 0 mm 4 mps 743 mmHg 56%
    13:00 +25°C° 0 mm 4 mps 743 mmHg 57%
    14:00 +25°C° 0 mm 4 mps 743 mmHg 58%
    15:00 +25°C° 0 mm 4 mps 742 mmHg 59%
    16:00 +25°C° 0 mm 4 mps 742 mmHg 60%
    17:00 +23°C° 0.1 mm 4 mps 742 mmHg 66%
    18:00 +22°C° 0.1 mm 3 mps 742 mmHg 72%
    19:00 +20°C° 0.1 mm 3 mps 742 mmHg 78%
    20:00 +19°C° 0.4 mm 3 mps 742 mmHg 80%
    21:00 +19°C° 0.4 mm 3 mps 742 mmHg 83%
    22:00 +18°C° 0.4 mm 4 mps 742 mmHg 86%
    23:00 +18°C° 0.3 mm 3 mps 741 mmHg 87%
    Show more